Terminal Aerodrome Forecast
Issued by NWS

Home | Current Version | Previous Version | Text Only | Print | Product List | Glossary On
Versions: 1 2 3 4 5 6 7 8 9 10 11 12 13 14 15 16 17 18 19 20 21 22 23 24 25 26 27 28 29 30 31 32 33
000
FTUS43 KDLH 172300
TAFHIB
TAF
KHIB 172327Z 1800/1824 12012KT P6SM OVC040
     FM180300 10005KT P6SM BKN015
     FM181200 12005KT P6SM SCT015 BKN035
     FM181800 11009KT P6SM BKN025=

USA.gov is the U.S. government's official web portal to all federal, state and local government web resources and services.